Voltar ao catálogo

STARLINK-5388

AtivoComunicaçõesVLEO
NORAD 54844·PAYLOAD·🇺🇸 United States

Lançado Dec 28, 2022 de Cape Canaveral Space Force Station

Loading…

Próximas Passagens (próximas 24 horas)

TLE

AtualizadoSource: CelesTrak SupGP

Época: Sep 14, 2026, 22:05 UTC

1 54844C 22177AA  26257.92062500 -.00019891  00000+0 -72058-3 0  2571
2 54844  43.0010 147.0589 0001628 266.8615 225.7528 15.27582156    14

Acompanhe STARLINK-5388 em tempo real com AllMySat

Download on the App Store